Flag for Uruguay Weather past 2 weeks in Montevideo, Uruguay

Now
73 °F

Clear.


Feels Like: 73 °F
Forecast: 69 / 82 °F
Wind: 8 mph from Northeast

Location: Carrasco

Current Time: Dec 26, 2014 at 5:24:34 AM

Latest Report: Dec 26, 2014 at 5:00 AM


Visibility: 10 mi

Pressure: 29.89 "Hg

Humidity: 83%

Dew point: 68 °F

Location of MontevideoLocation

Historic Weather in Montevideo — Graph

°F

Montevideo temperature yesterday

Maximum temperature yesterday: 88 °F (at 3:00 PM)
Minimum temperature yesterday: 64 °F (at 5:00 AM)
Average temperature yesterday: 75 °F

Past Weeks' High & Low Weather Summary

 TemperatureHumidityPressure
High93 °F (Dec 19, 3:00 PM)100% (Dec 17, 3:00 AM)30.21 "Hg (Dec 17, 3:00 AM)
Low50 °F (Dec 23, 7:00 AM)20% (Dec 19, 6:00 PM)29.53 "Hg (Dec 20, 4:00 PM)
Average70 °F64%29.91 "Hg
* Reported Dec 11 4:00 AM — Dec 26 4:00 AM, Montevideo, Weather by CustomWeather, © 2014

Note: Actual official high and low records may vary slightly from our data, if they occured in-between our weather recording intervals... More about our weather records

Advertising

Montevideo weather history for previous 24 hours

 ConditionsComfort  
Time TempWeatherWind HumidityBarometerVisibility
4:00 AM
Dec 26
73 °FClear.7 mph83%29.89 "Hg10 mi
3:00 AM73 °FClear.7 mph83%29.92 "Hg10 mi
2:00 AM75 °FClear.7 mph78%29.92 "Hg10 mi
1:00 AM77 °FClear.8 mph74%29.92 "Hg10 mi
12:00 AM77 °FClear.7 mph74%29.92 "Hg10 mi
11:00 PM
Dec 25
75 °FClear.7 mph83%29.89 "Hg10 mi
10:00 PM75 °FClear.8 mph83%29.89 "Hg10 mi
9:00 PM77 °FClear.6 mph79%29.86 "Hg10 mi
8:00 PM79 °FScattered clouds.12 mph74%29.86 "HgN/A
7:00 PM79 °FPartly sunny.12 mph74%29.86 "HgN/A
6:00 PM81 °FScattered clouds.13 mph66%29.86 "HgN/A
5:00 PM82 °FPartly sunny.17 mph58%29.86 "HgN/A
4:00 PM88 °FBroken clouds.12 mph35%29.86 "HgN/A
3:00 PM88 °FScattered clouds.9 mph33%29.89 "HgN/A
2:00 PM86 °FPartly sunny.12 mph49%29.89 "HgN/A
1:00 PM84 °FPartly sunny.9 mph45%29.92 "HgN/A
12:00 PM82 °FPassing clouds.8 mph55%29.92 "HgN/A
11:00 AM79 °FSunny.9 mph58%29.95 "Hg10 mi
10:00 AM75 °FSunny.12 mph61%29.95 "Hg10 mi
9:00 AM72 °FSunny.13 mph69%29.95 "Hg10 mi
8:00 AM66 °FScattered clouds.10 mph83%29.95 "HgN/A
7:00 AM64 °FSunny.8 mph88%29.95 "Hg10 mi
6:00 AM64 °FClear.8 mph83%29.95 "Hg10 mi
5:00 AM64 °FClear.5 mph83%29.95 "Hg10 mi
Weather by CustomWeather, © 2014

See weather overviewHow to use our weather pages